Location: Unspecified
(45.7810°N, 0.0000°E)
Time: 13:48:10
(UTC+00:00)

Envisat - Visible Passes

Search period start: 18 August 2019 00:00
Search period end: 28 August 2019 00:00
Orbit: 764 x 766 km, 98.1° (Epoch: 17 August)

Date Brightness Start Highest point End Pass type
(mag) Time Alt. Az. Time Alt. Az. Time Alt. Az.
18 Aug 6.2 19:53:09 10° WSW 19:54:48 11° W 19:56:27 10° WNW visible
21 Aug 5.9 19:40:36 10° WSW 19:43:23 15° W 19:46:11 10° NW visible
24 Aug 5.8 19:28:32 10° SW 19:32:01 18° W 19:35:30 10° NW visible
26 Aug 6.4 19:57:06 10° W 19:57:52 10° W 19:58:39 10° WNW visible
27 Aug 5.7 19:16:40 10° SW 19:20:38 23° W 19:24:38 10° NW visible
